Time,TemperatureF,DewpointF,PressureIn,WindDirection,WindDirectionDegrees,WindSpeedMPH,WindSpeedGustMPH,Humidity,HourlyPrecipIn,Conditions,Clouds,dailyrainin,SolarRadiationWatts/m^2,SoftwareType,DateUTC
2013-02-17 00:01:00,28.0,19.0,-100.00,WNW,295,6.0,9.0,69,0.00,,,0.00,0.000000,,2013-02-17 07:01:00,
2013-02-17 00:11:00,28.0,19.0,-100.00,WNW,295,6.0,9.0,69,0.00,,,0.00,0.000000,,2013-02-17 07:11:00,
2013-02-17 00:21:00,28.0,19.0,-100.00,WNW,295,6.0,9.0,69,0.00,,,0.00,0.000000,,2013-02-17 07:21:00,
2013-02-17 00:31:00,28.0,19.0,-100.00,WNW,295,6.0,9.0,69,0.00,,,0.00,0.000000,,2013-02-17 07:31:00,
2013-02-17 01:01:00,32.0,20.0,-100.00,West,273,5.0,10.0,62,0.00,,,0.00,0.000000,,2013-02-17 08:01:00,
2013-02-17 01:11:00,32.0,20.0,-100.00,West,273,5.0,10.0,62,0.00,,,0.00,0.000000,,2013-02-17 08:11:00,
2013-02-17 01:21:00,32.0,20.0,-100.00,West,273,5.0,10.0,62,0.00,,,0.00,0.000000,,2013-02-17 08:21:00,
2013-02-17 01:31:00,32.0,20.0,-100.00,West,273,5.0,10.0,62,0.00,,,0.00,0.000000,,2013-02-17 08:31:00,
2013-02-17 02:02:00,30.0,19.0,-100.00,WNW,294,7.0,10.0,63,0.00,,,0.00,1.000000,,2013-02-17 09:02:00,
2013-02-17 02:11:00,30.0,19.0,-100.00,WNW,294,7.0,10.0,63,0.00,,,0.00,1.000000,,2013-02-17 09:11:00,
2013-02-17 02:21:00,30.0,19.0,-100.00,WNW,294,7.0,10.0,63,0.00,,,0.00,1.000000,,2013-02-17 09:21:00,
2013-02-17 02:31:00,30.0,19.0,-100.00,WNW,294,7.0,10.0,63,0.00,,,0.00,1.000000,,2013-02-17 09:31:00,
2013-02-17 03:01:00,31.0,19.0,-100.00,WNW,282,6.0,11.0,61,0.00,,,0.00,0.000000,,2013-02-17 10:01:00,
2013-02-17 03:11:00,31.0,19.0,-100.00,WNW,282,6.0,11.0,61,0.00,,,0.00,0.000000,,2013-02-17 10:11:00,
2013-02-17 03:21:00,31.0,19.0,-100.00,WNW,282,6.0,11.0,61,0.00,,,0.00,0.000000,,2013-02-17 10:21:00,
2013-02-17 03:31:00,31.0,19.0,-100.00,WNW,282,6.0,11.0,61,0.00,,,0.00,0.000000,,2013-02-17 10:31:00,
2013-02-17 04:01:00,29.0,18.0,-100.00,West,281,7.0,11.0,63,0.00,,,0.00,0.000000,,2013-02-17 11:01:00,
2013-02-17 04:11:00,29.0,18.0,-100.00,West,281,7.0,11.0,63,0.00,,,0.00,0.000000,,2013-02-17 11:11:00,
2013-02-17 04:21:00,29.0,18.0,-100.00,West,281,7.0,11.0,63,0.00,,,0.00,0.000000,,2013-02-17 11:21:00,
2013-02-17 04:32:00,29.0,18.0,-100.00,West,281,7.0,11.0,63,0.00,,,0.00,0.000000,,2013-02-17 11:32:00,
2013-02-17 05:03:00,31.0,16.0,-100.00,WNW,285,7.0,12.0,54,0.00,,,0.00,0.000000,,2013-02-17 12:03:00,
2013-02-17 05:11:00,31.0,16.0,-100.00,WNW,285,7.0,12.0,54,0.00,,,0.00,0.000000,,2013-02-17 12:11:00,
2013-02-17 05:22:00,31.0,16.0,-100.00,WNW,285,7.0,12.0,54,0.00,,,0.00,0.000000,,2013-02-17 12:22:00,
2013-02-17 05:32:00,31.0,16.0,-100.00,WNW,285,7.0,12.0,54,0.00,,,0.00,0.000000,,2013-02-17 12:32:00,
2013-02-17 06:02:00,31.0,17.0,-100.00,West,281,8.0,10.0,56,0.00,,,0.00,1.000000,,2013-02-17 13:02:00,
2013-02-17 06:12:00,31.0,17.0,-100.00,West,281,8.0,10.0,56,0.00,,,0.00,1.000000,,2013-02-17 13:12:00,
2013-02-17 06:22:00,31.0,17.0,-100.00,West,281,8.0,10.0,56,0.00,,,0.00,1.000000,,2013-02-17 13:22:00,
2013-02-17 06:32:00,31.0,17.0,-100.00,West,281,8.0,10.0,56,0.00,,,0.00,1.000000,,2013-02-17 13:32:00,
2013-02-17 07:01:00,31.0,16.0,-100.00,WNW,295,6.0,9.0,53,0.00,,,0.00,0.000000,,2013-02-17 14:01:00,
2013-02-17 07:11:00,31.0,16.0,-100.00,WNW,295,6.0,9.0,53,0.00,,,0.00,0.000000,,2013-02-17 14:11:00,
2013-02-17 07:21:00,31.0,16.0,-100.00,WNW,295,6.0,9.0,53,0.00,,,0.00,0.000000,,2013-02-17 14:21:00,
2013-02-17 07:32:00,31.0,16.0,-100.00,WNW,295,6.0,9.0,53,0.00,,,0.00,0.000000,,2013-02-17 14:32:00,
2013-02-17 08:02:00,34.0,16.0,-100.00,WSW,253,5.0,11.0,47,0.00,,,0.00,15.000000,,2013-02-17 15:02:00,
2013-02-17 08:11:00,34.0,16.0,-100.00,WSW,253,5.0,11.0,47,0.00,,,0.00,15.000000,,2013-02-17 15:11:00,
2013-02-17 08:21:00,34.0,16.0,-100.00,WSW,253,5.0,11.0,47,0.00,,,0.00,15.000000,,2013-02-17 15:21:00,
2013-02-17 08:32:00,34.0,16.0,-100.00,WSW,253,5.0,11.0,47,0.00,,,0.00,15.000000,,2013-02-17 15:32:00,
2013-02-17 09:01:00,35.0,18.0,-100.00,South,172,1.0,8.0,49,0.00,,,0.00,85.000000,,2013-02-17 16:01:00,
2013-02-17 09:11:00,35.0,18.0,-100.00,South,172,1.0,8.0,49,0.00,,,0.00,85.000000,,2013-02-17 16:11:00,
2013-02-17 09:21:00,35.0,18.0,-100.00,South,172,1.0,8.0,49,0.00,,,0.00,85.000000,,2013-02-17 16:21:00,
2013-02-17 09:32:00,35.0,18.0,-100.00,South,172,1.0,8.0,49,0.00,,,0.00,85.000000,,2013-02-17 16:32:00,
2013-02-17 09:52:00,45.0,16.0,-100.00,West,275,7.0,15.0,31,0.00,,,0.00,230.000000,,2013-02-17 16:52:00,
2013-02-17 10:02:00,45.0,16.0,-100.00,West,275,7.0,15.0,31,0.00,,,0.00,230.000000,,2013-02-17 17:02:00,
2013-02-17 10:11:00,45.0,16.0,-100.00,West,275,7.0,15.0,31,0.00,,,0.00,230.000000,,2013-02-17 17:11:00,
2013-02-17 10:21:00,45.0,16.0,-100.00,West,275,7.0,15.0,31,0.00,,,0.00,230.000000,,2013-02-17 17:21:00,
2013-02-17 10:32:00,45.0,16.0,-100.00,West,275,7.0,15.0,31,0.00,,,0.00,230.000000,,2013-02-17 17:32:00,
2013-02-17 11:02:00,49.0,13.0,-100.00,WNW,285,9.0,18.0,23,0.00,,,0.00,511.000000,,2013-02-17 18:02:00,
2013-02-17 11:11:00,49.0,13.0,-100.00,WNW,285,9.0,18.0,23,0.00,,,0.00,511.000000,,2013-02-17 18:11:00,
2013-02-17 11:22:00,49.0,13.0,-100.00,WNW,285,9.0,18.0,23,0.00,,,0.00,511.000000,,2013-02-17 18:22:00,
2013-02-17 11:33:00,49.0,13.0,-100.00,WNW,285,9.0,18.0,23,0.00,,,0.00,511.000000,,2013-02-17 18:33:00,
2013-02-17 12:01:00,52.0,14.0,-100.00,NW,304,7.0,20.0,22,0.00,,,0.00,531.000000,,2013-02-17 19:01:00,
2013-02-17 12:11:00,52.0,14.0,-100.00,NW,304,7.0,20.0,22,0.00,,,0.00,531.000000,,2013-02-17 19:11:00,
2013-02-17 12:21:00,52.0,14.0,-100.00,NW,304,7.0,20.0,22,0.00,,,0.00,531.000000,,2013-02-17 19:21:00,
2013-02-17 12:32:00,52.0,14.0,-100.00,NW,304,7.0,20.0,22,0.00,,,0.00,531.000000,,2013-02-17 19:32:00,
2013-02-17 13:02:00,53.0,20.0,-100.00,North,7,4.0,15.0,27,0.00,,,0.00,605.000000,,2013-02-17 20:02:00,
2013-02-17 13:11:00,53.0,20.0,-100.00,North,7,4.0,15.0,27,0.00,,,0.00,605.000000,,2013-02-17 20:11:00,
2013-02-17 13:21:00,53.0,20.0,-100.00,North,7,4.0,15.0,27,0.00,,,0.00,605.000000,,2013-02-17 20:21:00,
2013-02-17 13:32:00,53.0,20.0,-100.00,North,7,4.0,15.0,27,0.00,,,0.00,605.000000,,2013-02-17 20:32:00,
2013-02-17 14:02:00,54.0,15.0,-100.00,WNW,293,5.0,15.0,21,0.00,,,0.00,551.000000,,2013-02-17 21:02:00,
2013-02-17 14:11:00,54.0,15.0,-100.00,WNW,293,5.0,15.0,21,0.00,,,0.00,551.000000,,2013-02-17 21:11:00,
2013-02-17 14:21:00,54.0,15.0,-100.00,WNW,293,5.0,15.0,21,0.00,,,0.00,551.000000,,2013-02-17 21:21:00,
2013-02-17 14:32:00,54.0,15.0,-100.00,WNW,293,5.0,15.0,21,0.00,,,0.00,551.000000,,2013-02-17 21:32:00,
2013-02-17 15:01:00,50.0,12.0,-100.00,NW,320,11.0,23.0,21,0.00,,,0.00,498.000000,,2013-02-17 22:01:00,
2013-02-17 15:12:00,50.0,12.0,-100.00,NW,320,11.0,23.0,21,0.00,,,0.00,498.000000,,2013-02-17 22:12:00,
2013-02-17 15:22:00,50.0,12.0,-100.00,NW,320,11.0,23.0,21,0.00,,,0.00,498.000000,,2013-02-17 22:22:00,
2013-02-17 15:32:00,50.0,12.0,-100.00,NW,320,11.0,23.0,21,0.00,,,0.00,498.000000,,2013-02-17 22:32:00,
2013-02-17 16:02:00,48.0,18.0,-100.00,WNW,292,5.0,22.0,30,0.00,,,0.00,63.000000,,2013-02-17 23:02:00,
2013-02-17 16:11:00,48.0,18.0,-100.00,WNW,292,5.0,22.0,30,0.00,,,0.00,63.000000,,2013-02-17 23:11:00,
2013-02-17 16:21:00,48.0,18.0,-100.00,WNW,292,5.0,22.0,30,0.00,,,0.00,63.000000,,2013-02-17 23:21:00,
2013-02-17 16:32:00,48.0,18.0,-100.00,WNW,292,5.0,22.0,30,0.00,,,0.00,63.000000,,2013-02-17 23:32:00,
2013-02-17 17:01:00,35.0,20.0,-100.00,NW,311,10.0,23.0,53,0.00,,,0.00,65.000000,,2013-02-18 00:01:00,
2013-02-17 17:11:00,35.0,20.0,-100.00,NW,311,10.0,23.0,53,0.00,,,0.00,65.000000,,2013-02-18 00:11:00,
2013-02-17 17:22:00,35.0,20.0,-100.00,NW,311,10.0,23.0,53,0.00,,,0.00,65.000000,,2013-02-18 00:22:00,
2013-02-17 17:32:00,35.0,20.0,-100.00,NW,311,10.0,23.0,53,0.00,,,0.00,65.000000,,2013-02-18 00:32:00,
2013-02-17 18:01:00,33.0,19.0,-100.00,NW,326,6.0,20.0,56,0.00,,,0.00,15.000000,,2013-02-18 01:01:00,
2013-02-17 18:12:00,33.0,19.0,-100.00,NW,326,6.0,20.0,56,0.00,,,0.00,15.000000,,2013-02-18 01:12:00,
2013-02-17 18:21:00,33.0,19.0,-100.00,NW,326,6.0,20.0,56,0.00,,,0.00,15.000000,,2013-02-18 01:21:00,
2013-02-17 18:31:00,33.0,19.0,-100.00,NW,326,6.0,20.0,56,0.00,,,0.00,15.000000,,2013-02-18 01:31:00,
2013-02-17 19:01:00,32.0,19.0,-100.00,NW,320,4.0,13.0,59,0.00,,,0.00,1.000000,,2013-02-18 02:01:00,
2013-02-17 19:11:00,32.0,19.0,-100.00,NW,320,4.0,13.0,59,0.00,,,0.00,1.000000,,2013-02-18 02:11:00,
2013-02-17 19:21:00,32.0,19.0,-100.00,NW,320,4.0,13.0,59,0.00,,,0.00,1.000000,,2013-02-18 02:21:00,
2013-02-17 19:32:00,32.0,19.0,-100.00,NW,320,4.0,13.0,59,0.00,,,0.00,1.000000,,2013-02-18 02:32:00,
2013-02-17 20:01:00,31.0,20.0,-100.00,NNW,341,4.0,13.0,62,0.00,,,0.00,0.000000,,2013-02-18 03:01:00,
2013-02-17 20:11:00,31.0,20.0,-100.00,NNW,341,4.0,13.0,62,0.00,,,0.00,0.000000,,2013-02-18 03:11:00,
2013-02-17 20:21:00,31.0,20.0,-100.00,NNW,341,4.0,13.0,62,0.00,,,0.00,0.000000,,2013-02-18 03:21:00,
2013-02-17 20:31:00,31.0,20.0,-100.00,NNW,341,4.0,13.0,62,0.00,,,0.00,0.000000,,2013-02-18 03:31:00,
2013-02-17 21:01:00,32.0,19.0,-100.00,WNW,301,6.0,15.0,59,0.00,,,0.00,0.000000,,2013-02-18 04:01:00,
2013-02-17 21:11:00,32.0,19.0,-100.00,WNW,301,6.0,15.0,59,0.00,,,0.00,0.000000,,2013-02-18 04:11:00,
2013-02-17 21:21:00,32.0,19.0,-100.00,WNW,301,6.0,15.0,59,0.00,,,0.00,0.000000,,2013-02-18 04:21:00,
2013-02-17 21:32:00,32.0,19.0,-100.00,WNW,301,6.0,15.0,59,0.00,,,0.00,0.000000,,2013-02-18 04:32:00,
2013-02-17 22:02:00,30.0,19.0,-100.00,NNW,335,8.0,24.0,64,0.00,,,0.00,0.000000,,2013-02-18 05:02:00,
2013-02-17 22:11:00,30.0,19.0,-100.00,NNW,335,8.0,24.0,64,0.00,,,0.00,0.000000,,2013-02-18 05:11:00,
2013-02-17 22:21:00,30.0,19.0,-100.00,NNW,335,8.0,24.0,64,0.00,,,0.00,0.000000,,2013-02-18 05:21:00,
2013-02-17 22:31:00,30.0,19.0,-100.00,NNW,335,8.0,24.0,64,0.00,,,0.00,0.000000,,2013-02-18 05:31:00,
2013-02-17 23:02:00,29.0,17.0,-100.00,NW,320,10.0,24.0,61,0.00,,,0.00,0.000000,,2013-02-18 06:02:00,
2013-02-17 23:11:00,29.0,17.0,-100.00,NW,320,10.0,24.0,61,0.00,,,0.00,0.000000,,2013-02-18 06:11:00,
2013-02-17 23:21:00,29.0,17.0,-100.00,NW,320,10.0,24.0,61,0.00,,,0.00,0.000000,,2013-02-18 06:21:00,
2013-02-17 23:32:00,29.0,17.0,-100.00,NW,320,10.0,24.0,61,0.00,,,0.00,0.000000,,2013-02-18 06:32:00,